Погода в Калачинске

Погода в Калачинске : погода сейчас, прогноз погоды и архив. Всё, что Вы хотите узнать о погоде в Калачинске!

Хотите узнать прогноз погоды в Калачинске? Тогда Вам сюда: Погода в Калачинске

Поиск расширенной информации на нашем сайте:

Другие новости

Новости СМИ2

Главная страница сайта

Новости сайта

03.07.2017

Напоминаем, что на нашем специализированном сайте Метеоцентр.Азия вы можете получить высокодетализированные автоматические прогнозы погоды по пунктам России, СНГ и мира в авиационном формате (включающие направление и скорость ветра, видимость, явления погоды, количество и форму облачности, нижнюю и верхнюю границу облачности).


Погода в Калачинске - сегодня

Время (UTC), дата Ветер
(°,м/с) 
Видим.   Явления Облачность Т
(°С)
Тd
(°С)
f(%) Тe
(°С)
Pmin
(гПа)
dP
(гПа)
Po
(мм)
O2
(г/м3)
Тmin Tmax R s Состояние
почвы
18 24.07.17 270 (З) 10 км    4/0 верхняя 
[Ci fib]
+17.8 +13.3 75 +24  1002.2  0.4  742  278           
21 24.07.17 280 (З) 10 км    3/0 верхняя 
[Ci fib]
+16.4 +16 97 +27  1002.9  0.6  743  279           
00 25.07.17 280 (З) 8000 м  дымка  ясно 
+15 +15 100 +25  1003.1  -0.1  743  280           
03 25.07.17 270 (З) 2800 м  дымка  10/0 средняя 
[Ac As]
+17.1 +17.1 100 +31  1003.8  0.8  743  278  +14.1        сухая 
06 25.07.17 280 (З) 20000 м    10/6 1000 м верхняя 
[Cu med, cong|Ci fib]
+21.2 +17.9 81 +36  1004.1  0.4  744  274           
09 25.07.17 300 (СЗ) 20000 м    10/6 600 м кучево-дожд., средняя, верхняя 
[Cb cap|Ac As|Ci fib]
+24.2 +16 60 +35  1003.5  -0.4  743  272           
12 25.07.17 280 (З) 20000 м    10/5 600 м кучево-дожд., средняя, верхняя 
[Cb cap|Ac As|Ci fib]
+24.8 +15.7 57 +35  1003.6  0.1  743  271           
15 25.07.17 180 (Ю) 20000 м    10/3 600 м кучево-дожд., средняя, верхняя 
[Cb cap|Ac trans|Ci fib]
+22.1 +16.3 70 +33  1003.3  -0.4  743  273    +25.7       
18 25.07.17 220 (ЮЗ) 10 км    10/3 600 м кучево-дожд., средняя 
[Cb cap|Ac und]
+20.6 +16.2 76 +32  1003.9  0.5  743  275           
21 25.07.17 270 (З) 10 км    10/3 600 м кучево-дожд., средняя, верхняя 
[Cb cap|Ac trans|Ci fib]
+19.5 +16.2 81 +32  1003.9  743  276           
00 26.07.17 320 (СЗ) 20000 м  туман поземный  4/0 средняя 
[Ac trans]
+17.3 +17.2 99 +31  1004.4  0.4  744  278           
03 26.07.17 080 (В) 20000 м    3/3 600 м 
[Cu hum]
+21.6 +17.2 76 +35  1004.4  0.2  744  274  +17.2        сухая 
06 26.07.17 тихо ()   20000 м    10/6 600 м кучево-дожд., верхняя 
[Cb cap|Ci fib]
+25.4 +16 56 +36  1004.1  -0.2  744  271           
09 26.07.17 160 (Ю) 20000 м  слаб. ливневой дождь{гроза}  10/10 600 м кучево-дожд. 
[Cb cap]
+24.4 +17.1 64 +37  1004.3  0.1  744  271           
12 26.07.17 140 (ЮВ) 20000 м  {гроза, ливн. осадки}  10/6 600 м кучево-дожд., средняя, верхняя 
[Cb cap|Ac trans|Ci fib]
+23.8 +15.6 60 +34  1004  -0.3  744  272           
15 26.07.17 тихо ()   20000 м    10/6 600 м кучево-дожд., средняя, верхняя 
[Cb cap|Ac trans|Ci fib]
+21.4 +17.4 78 +35  1004.1  -0.1  744  274    +26  0.0     
18 26.07.17 050 (СВ) 10 км    10/8 600 м кучево-дожд., средняя 
[Cb cap|Ac As]
+19.4 +18.7 96 +37  1004.3  -0.1  744  275           
21 26.07.17 030 (СВ) 10 км    10/8 600 м кучево-дожд., средняя 
[Cb cap|Ac As]
+19.5 +18.4 93 +35  1002.9  -1.4  743  275           
00 27.07.17 070 (В) 20000 м  гроза, ливневой дождь  10/8 300 м кучево-дожд., средняя 
[Cb cap|Ac As]
+19 +18.2 95 +35  1002.8  -0.1  743  275           
03 27.07.17 040 (СВ) 20000 м  в посл. час гроза{ливн. осадки}  10/6 600 м кучево-дожд., средняя 
[Cb cap|Ac und]
+21.2 +19.3 89 +39  1001.9  -0.8  742  273  +18.6      влажная 
06 27.07.17 010 (С) 20000 м  {гроза, ливн. осадки}  10/6 600 м кучево-дожд., средняя 
[Cb cap|Ac und]
+24 +17.3 66 +37  1001.2  -0.6  742  271           
12 27.07.17 340 (С) 4{13}  20000 м  в посл. час гроза  10/10 600 м кучево-дожд. 
[Cb cap]
+18.8 +15 79 +28  1000  -1.3  740  276           
15 27.07.17 280 (З) 5{12}  20000 м  {ливн. осадки}  10/10 300 м кучево-дожд. 
[Cb cap]
+17.9 +16.2 90 +29  1000.6  0.4  741  277    +24.2  0.0     
18 27.07.17 260 (З) 10 км  {ливн. осадки}  6/6 600 м кучево-дожд. 
[Cb cap]
+16.7 +16.2 97 +28  1000.9  0.3  741  278           
21 27.07.17 270 (З) 10 км    6/0 средняя 
[Ac As]
+15.5 +15.5 100 +26  1000.4  -0.6  741  279           
Время (UTC), дата Ветер
(°,м/с) 
Видим.   Явления Облачность Т
(°С)
Тd
(°С)
f(%) Тe
(°С)
Pmin
(гПа)
dP
(гПа)
Po
(мм)
O2
(г/м3)
Тmin Tmax R s Состояние
почвы

Для получения пояснительной информации подведите курсор к названию столбца.

ПОГОДА в Калачинске - архив

Всё, что Вы хотите узнать о погоде в Калачинске - удобно и подробно!

Выберите нужную дату (начиная с 1 января 2015* года) и нажмите кнопку "Найти".
Будут отображены архивные сводки погоды по пункту Калачинск, начиная с указанной даты.


Отображать данные в формате CSV (для использования в таблицах Excel)


Внимание! Наш архив погоды предназначен исключительно для личного некоммерческого использования в познавательных целях. Если Вам необходимы официальные справки о состоянии погоды (для производственных, юридических, коммерческих и т.п. целей), обращайтесь в органы Росгидромета.

*Примечание: данная дата относится к архиву по метеостанциям СССР (Россия, СНГ, Балтия).
Архив по метеостанциям Зарубежной Европы и Азии (кроме Китая) хранится 10 дней, по другим регионам земного шара (Китай, Африка, Америка, Австралия, Океания) - 1 день.

Калачинск - район местоположения метеостанции


Название, широта, долгота, высота метеостанции:
Калачинск 55°ш. 74.6°д. 110 м над ур. моря [Российская Федерация]

Дополнительная информация

В oтличие oт бoльшинства пoгoдных сайтoв мы публикуем пoдрoбную метеoинфoрмацию в детальнoм прoфессиoнальнoм фoрмате.

Характеристики температуры и влажнoсти вoздуха измеряются на высoте 2 м в тени вдали oт зданий и деревьев.
Скoрoсть ветра измеряется на высoте 10 м (на урoвне рoста челoвека скoрoсть ветра ниже в 1.5-2 раза). Если метеoстанция нахoдится в гoрoде или в лесу, тo скoрoсть ветра занижена на 2-4 м/с пo сравнению с oткрытым местoм. Скoрoсть ветра над акватoриями крупных рек и oзёр, а также на вершинах хoлмoв на 2-5 м/с выше, чем в oбычных услoвиях.
Атмoсфернoе давление в разных тoчках местнoсти мoжет значительнo oтличаться oт давления на метеoстанции, в зависимoсти oт услoвий рельефа (при пoдъёме на 10 м давление пoнижается примернo на 1 мм рт.ст.).